Terug naar catalogus

CZ-3B R/B

ActiefHEO
NORAD 66991·ROCKET BODY·🇨🇳 China

Gelanceerd Dec 9, 2025 vanaf Xichang Satellite Launch Center

Loading…

Volgende Passages (komende 24 uur)

TLE

VersSource: Space-Track

Epoch: Sep 14, 2026, 03:16 UTC

1 66991U 25290B   26257.13671027  .00082711  68611-6  20604-2 0  9999
2 66991  28.0151 167.3772 6759128  40.1901 353.8185  3.01892839  7852

Volg CZ-3B R/B in realtime met AllMySat

Download on the App Store